Weather History for KMGW - July, 2013

Change the Weather History Date:

Saturday, July 20, 2013

  Actual Average Record
Temperature  
Mean Temperature 75 °F 73 °F  
Max Temperature 81 °F 83 °F 96 °F (1977)
Min Temperature 68 °F 63 °F 51 °F (1965)
Degree Days  
Heating Degree Days 0 0  
Month to date heating degree days 0 0  
Since 1 June heating degree days 11 31  
Since 1 July heating degree days 0 0  
Cooling Degree Days 10 8  
Month to date cooling degree days 237 160  
Year to date cooling degree days 552 389  
Since 1 June cooling degree days 406 322  
Growing Degree Days 24 (Base 50)    
Moisture  
Dew Point 69 °F    
Average Humidity 87    
Maximum Humidity 100    
Minimum Humidity 74    
Precipitation  
Precipitation 0.98 in 0.15 in - ()
Month to date precipitation 5.48 3.08  
Year to date precipitation 22.90 24.38  
Sea Level Pressure  
Sea Level Pressure 29.95 in    
Wind  
Wind Speed 4 mph (SSW)    
Max Wind Speed 14 mph    
Max Gust Speed 23 mph    
Visibility 5 miles    
Events Fog , Rain    
T = Trace of Precipitation, MM = Missing Value Source: NWS Daily Summary

Daily Weather History Graph

Daily Weather History Graph

Search for Another Location

Airport or City:

Trip Planner

Search our weather history database for the weather conditions in past years. The results will help you decide how hot, cold, wet, or windy it might be!

Date:

Astronomy

Jul. 20, 2013 Rise Set
Actual Time 6:08 AM EDT 8:43 PM EDT
Civil Twilight 5:37 AM EDT 9:14 PM EDT
Nautical Twilight 4:58 AM EDT 9:52 PM EDT
Astronomical Twilight 4:15 AM EDT 10:36 PM EDT
Moon 6:44 PM EDT (7/20) 3:46 AM EDT (7/20)
Length of Visible Light 15h 36m
Length of Day
14h 34m
Waxing Gibbous, 93% of the Moon is Illuminated
Jul 20
Waxing Gibbous
Jul 22
Full
Jul 29
Last Quarter
Aug 6
New
Aug 14
First Quarter

Hourly Weather History & Observations

Time (EDT) Temp. Heat Index Dew Point Humidity Pressure Visibility Wind Dir Wind Speed Gust Speed Precip Events Conditions
12:53 AM 73.0 °F - 70.0 °F 90% 29.94 in 10.0 mi SSW 4.6 mph - N/A   Clear
1:53 AM 73.0 °F - 70.0 °F 90% 29.95 in 10.0 mi SSW 4.6 mph - N/A   Clear
2:53 AM 73.0 °F - 68.0 °F 84% 29.93 in 10.0 mi SSW 6.9 mph - N/A   Clear
3:53 AM 73.0 °F - 66.9 °F 81% 29.91 in 10.0 mi SSW 6.9 mph - N/A   Scattered Clouds
4:51 AM 73.4 °F - 66.2 °F 78% 29.96 in 10.0 mi SSW 4.6 mph - N/A   Mostly Cloudy
4:53 AM 73.0 °F - 66.9 °F 81% 29.93 in 10.0 mi Variable 3.5 mph - N/A   Mostly Cloudy
5:50 AM 73.4 °F - 68.0 °F 83% 29.96 in 10.0 mi SSW 5.8 mph - N/A   Overcast
5:53 AM 73.0 °F - 68.0 °F 84% 29.93 in 10.0 mi South 5.8 mph - N/A   Overcast
6:53 AM 73.0 °F - 69.1 °F 87% 29.94 in 10.0 mi SSW 5.8 mph - N/A   Overcast
7:44 AM 73.4 °F - 69.8 °F 88% 29.98 in 10.0 mi SSW 6.9 mph - N/A   Mostly Cloudy
7:53 AM 73.9 °F - 69.1 °F 85% 29.96 in 9.0 mi SSW 8.1 mph - N/A   Mostly Cloudy
8:19 AM 73.4 °F - 69.8 °F 88% 29.98 in 2.0 mi SSW 8.1 mph - 0.01 in Rain Light Rain
8:24 AM 73.4 °F - 69.8 °F 88% 29.98 in 0.8 mi SSW 8.1 mph - 0.03 in Rain Heavy Rain
8:36 AM 73.4 °F - 69.8 °F 88% 29.98 in 1.8 mi SSW 8.1 mph - 0.07 in Rain Light Rain
8:39 AM 73.4 °F - 69.8 °F 88% 29.98 in 3.0 mi SW 4.6 mph - 0.08 in Rain Light Rain
8:53 AM 73.0 °F - 71.1 °F 93% 29.96 in 5.0 mi SSW 6.9 mph - 0.12 in   Overcast
8:56 AM 73.4 °F - 71.6 °F 94% 29.98 in 1.2 mi SSW 10.4 mph 16.1 mph 0.00 in Rain Light Rain
8:59 AM 73.4 °F - 71.6 °F 94% 29.99 in 0.8 mi SSW 8.1 mph - 0.01 in Rain Heavy Rain
9:06 AM 73.4 °F - 71.6 °F 94% 29.98 in 1.0 mi SSW 6.9 mph - 0.03 in Rain Heavy Rain
9:14 AM 73.4 °F - 71.6 °F 94% 29.98 in 2.0 mi SSW 8.1 mph - 0.05 in Rain Light Rain
9:21 AM 73.4 °F - 71.6 °F 94% 29.98 in 5.0 mi SSW 8.1 mph - 0.06 in Rain Light Rain
9:53 AM 75.9 °F - 72.0 °F 87% 29.94 in 5.0 mi SSW 5.8 mph - 0.13 in   Mostly Cloudy
10:05 AM 75.2 °F - 71.6 °F 89% 29.97 in 6.0 mi Variable 6.9 mph - 0.02 in   Mostly Cloudy
10:53 AM 78.1 °F - 73.0 °F 84% 29.94 in 7.0 mi SSW 5.8 mph - 0.11 in   Mostly Cloudy
11:53 AM 81.0 °F 84.9 °F 71.1 °F 72% 29.94 in 8.0 mi West 8.1 mph - 0.06 in   Overcast
12:23 PM 69.8 °F - 66.2 °F 88% 30.01 in 1.2 mi WNW 8.1 mph 17.3 mph 0.01 in Rain Rain
12:32 PM 69.8 °F - 66.2 °F 88% 30.00 in 0.5 mi Variable 3.5 mph - 0.03 in Fog , Rain Heavy Rain
12:44 PM 69.8 °F - 66.2 °F 88% 30.00 in 2.0 mi South 6.9 mph - 0.06 in Rain Rain
12:53 PM 68.0 °F - 66.9 °F 96% 29.96 in 1.2 mi Variable 5.8 mph - 0.09 in Rain Heavy Rain
1:01 PM 68.0 °F - 66.2 °F 94% 29.98 in 3.0 mi South 4.6 mph - 0.02 in Rain Light Rain
1:53 PM 70.0 °F - 66.9 °F 90% 29.96 in 10.0 mi Calm Calm - 0.15 in   Partly Cloudy
2:53 PM 71.1 °F - 68.0 °F 90% 29.92 in 10.0 mi South 5.8 mph - 0.12 in   Mostly Cloudy
3:53 PM 72.0 °F - 69.1 °F 91% 29.92 in 8.0 mi SSW 3.5 mph - 0.08 in Rain Light Rain
4:53 PM 72.0 °F - 69.1 °F 91% 29.89 in 7.0 mi SSW 6.9 mph - 0.06 in Rain Light Rain
5:53 PM 73.0 °F - 69.1 °F 87% 29.88 in 10.0 mi Variable 3.5 mph - 0.06 in   Partly Cloudy
6:53 PM 72.0 °F - 70.0 °F 93% 29.90 in 10.0 mi South 4.6 mph - N/A   Clear
7:53 PM 73.0 °F - 69.1 °F 87% 29.92 in 10.0 mi Calm Calm - N/A   Clear
8:53 PM 70.0 °F - 68.0 °F 93% 29.92 in 7.0 mi Calm Calm - N/A   Clear
9:08 PM 69.8 °F - 69.8 °F 100% 29.95 in 2.5 mi Calm Calm - N/A   Partly Cloudy
9:23 PM 69.8 °F - 69.8 °F 100% 29.95 in 4.0 mi Calm Calm - N/A   Partly Cloudy
9:28 PM 69.8 °F - 69.8 °F 100% 29.95 in 1.8 mi South 3.5 mph - N/A   Partly Cloudy
9:36 PM 69.8 °F - 69.8 °F 100% 29.95 in 1.0 mi Calm Calm - N/A   Mist
9:40 PM 69.8 °F - 69.8 °F 100% 29.95 in 2.0 mi Calm Calm - N/A   Scattered Clouds
9:46 PM 69.8 °F - 69.8 °F 100% 29.95 in 1.0 mi Calm Calm - N/A   Mist
9:53 PM 70.0 °F - 69.1 °F 97% 29.93 in 0.2 mi Calm Calm - N/A Fog Fog
10:11 PM 69.8 °F - 69.8 °F 100% 29.95 in 0.8 mi Calm Calm - N/A   Mist
10:20 PM 69.8 °F - 69.8 °F 100% 29.96 in 1.2 mi Calm Calm - N/A   Mostly Cloudy
10:30 PM 69.8 °F - 69.8 °F 100% 29.96 in 0.2 mi Calm Calm - N/A Fog Fog
10:41 PM 69.8 °F - 69.8 °F 100% 29.97 in 1.0 mi Calm Calm - N/A   Mist
10:43 PM 69.8 °F - 69.8 °F 100% 29.97 in 2.0 mi Calm Calm - N/A   Scattered Clouds
10:50 PM 69.8 °F - 69.8 °F 100% 29.98 in 4.0 mi Calm Calm - N/A   Mostly Cloudy
10:53 PM 69.1 °F - 69.1 °F 100% 29.96 in 3.0 mi Calm Calm - N/A   Mostly Cloudy
11:04 PM 69.8 °F - 68.0 °F 94% 29.98 in 2.0 mi Calm Calm - N/A   Mostly Cloudy
11:15 PM 69.8 °F - 68.0 °F 94% 29.98 in 7.0 mi Calm Calm - N/A   Mostly Cloudy
11:53 PM 69.1 °F - 68.0 °F 96% 29.95 in 7.0 mi Calm Calm - N/A   Partly Cloudy